Change the Weather History Date:

Sunday, March 31, 2013

  Actual Average Record
Temperature  
Mean Temperature 32 °F -  
Max Temperature 35 °F 45 °F 71 °F (1999)
Min Temperature 28 °F 26 °F 21 °F (2002)
Degree Days  
Heating Degree Days 34    
Moisture  
Dew Point 29 °F    
Average Humidity 87    
Maximum Humidity 100    
Minimum Humidity 48    
Precipitation  
Precipitation 0.00 in - - ()
Sea Level Pressure  
Sea Level Pressure 29.75 in    
Wind  
Wind Speed 10 mph (West)    
Max Wind Speed 22 mph    
Max Gust Speed 29 mph    
Visibility 4 miles    
Events Fog , Snow    
Averages and records for this station are not official NWS values.
T = Trace of Precipitation, MM = Missing Value Source: NWS Daily Summary

Daily Weather History Graph

Daily Weather History Graph

Search for Another Location

Airport or City:

Trip Planner

Search our weather history database for the weather conditions in past years. The results will help you decide how hot, cold, wet, or windy it might be!

Date:

Astronomy

Mar. 31, 2013 Rise Set
Actual Time 6:40 AM CDT 7:25 PM CDT
Civil Twilight 6:11 AM CDT 7:54 PM CDT
Nautical Twilight 5:36 AM CDT 8:30 PM CDT
Astronomical Twilight 4:59 AM CDT 9:06 PM CDT
Moon No Moon Rise 9:17 AM CDT
Length of Visible Light 13h 43m
Length of Day
12h 44m
Waning Gibbous, 77% of the Moon is Illuminated
Mar 31
Waning Gibbous
Apr 2
Last Quarter
Apr 10
New
Apr 18
First Quarter
Apr 25
Full

Hourly Weather History & Observations

Time (CDT) Temp. Windchill Dew Point Humidity Pressure Visibility Wind Dir Wind Speed Gust Speed Precip Events Conditions
12:15 AM 33.8 °F 27.7 °F 33.8 °F 100% 29.78 in 0.2 mi West 6.9 mph - N/A Fog Fog
12:35 AM 32.0 °F 25.6 °F 32.0 °F 100% 29.78 in 0.2 mi WSW 6.9 mph - N/A Fog Fog
12:55 AM 32.0 °F 25.6 °F 32.0 °F 100% 29.77 in 0.2 mi SW 6.9 mph - N/A Fog Fog
1:15 AM 32.0 °F 25.6 °F 32.0 °F 100% 29.77 in 0.2 mi WSW 6.9 mph - N/A Fog Fog
1:35 AM 33.8 °F 27.0 °F 33.8 °F 100% 29.76 in 0.2 mi WSW 8.1 mph - N/A Fog Fog
1:55 AM 33.8 °F 28.6 °F 33.8 °F 100% 29.76 in 0.2 mi WSW 5.8 mph - N/A Fog Fog
2:15 AM 33.8 °F 27.0 °F 33.8 °F 100% 29.75 in 0.2 mi WSW 8.1 mph - N/A Fog Fog
2:35 AM 33.8 °F 27.7 °F 33.8 °F 100% 29.74 in 0.2 mi WSW 6.9 mph - N/A Fog Fog
2:55 AM 33.8 °F 27.0 °F 33.8 °F 100% 29.74 in 0.2 mi WSW 8.1 mph - N/A Fog Fog
3:15 AM 32.0 °F 24.2 °F 32.0 °F 100% 29.74 in 0.2 mi West 9.2 mph - N/A Fog Fog
3:35 AM 33.8 °F 26.4 °F 33.8 °F 100% 29.74 in 0.5 mi West 9.2 mph - N/A Fog Fog
3:55 AM 33.8 °F 26.4 °F 33.8 °F 100% 29.72 in 1.5 mi West 9.2 mph - N/A   Overcast
4:15 AM 32.0 °F 24.2 °F 32.0 °F 100% 29.72 in 2.0 mi West 9.2 mph - N/A   Overcast
4:35 AM 32.0 °F 24.8 °F 32.0 °F 100% 29.71 in 1.5 mi West 8.1 mph - N/A   Overcast
4:55 AM 32.0 °F 24.2 °F 32.0 °F 100% 29.71 in 1.8 mi West 9.2 mph - N/A   Overcast
5:15 AM 32.0 °F 23.0 °F 32.0 °F 100% 29.71 in 2.0 mi West 11.5 mph - N/A   Overcast
5:35 AM 32.0 °F 22.1 °F 32.0 °F 100% 29.71 in 2.0 mi West 13.8 mph - N/A   Overcast
5:45 AM 32.0 °F 23.6 °F 32.0 °F 100% 29.71 in 2.0 mi West 10.4 mph - N/A   Overcast
6:45 AM 32.0 °F 22.5 °F 32.0 °F 100% 29.71 in 3.0 mi West 12.7 mph - N/A   Overcast
7:45 AM 32.0 °F 25.6 °F 32.0 °F 100% 29.70 in 3.0 mi West 6.9 mph - N/A   Scattered Clouds
8:45 AM 33.8 °F 26.4 °F 33.8 °F 100% 29.69 in 4.0 mi West 9.2 mph - N/A   Mostly Cloudy
10:45 AM 35.6 °F 26.2 °F 33.8 °F 93% 29.68 in 10.0 mi WSW 15.0 mph - N/A   Clear
11:45 AM 35.6 °F 25.2 °F 32.0 °F 87% 29.69 in 7.0 mi West 18.4 mph 23.0 mph N/A   Overcast
12:45 PM 33.8 °F 24.8 °F 30.2 °F 87% 29.69 in 5.0 mi West 12.7 mph 23.0 mph N/A   Overcast
1:45 PM 35.6 °F 25.2 °F 30.2 °F 81% 29.69 in 7.0 mi West 18.4 mph 24.2 mph N/A   Overcast
2:45 PM 35.6 °F 24.5 °F 28.4 °F 75% 29.69 in 0.5 mi West 20.7 mph 25.3 mph N/A Snow Light Snow
3:05 PM 33.8 °F 24.8 °F 30.2 °F 87% 29.70 in 10.0 mi NW 12.7 mph 23.0 mph N/A Snow Light Snow
3:45 PM 35.6 °F 24.8 °F 28.4 °F 75% 29.70 in 10.0 mi WNW 19.6 mph 25.3 mph N/A   Mostly Cloudy
4:50 PM 35.6 °F 24.2 °F 19.4 °F 52% 29.72 in 10.0 mi NW 21.9 mph 28.8 mph N/A   Scattered Clouds
5:45 PM 35.6 °F 25.5 °F 17.6 °F 48% 29.75 in 10.0 mi NW 17.3 mph 27.6 mph N/A   Scattered Clouds
8:45 PM 30.2 °F 20.2 °F 17.6 °F 60% 29.84 in 10.0 mi NW 12.7 mph - N/A   Scattered Clouds
9:45 PM 28.4 °F 18.0 °F 17.6 °F 64% 29.87 in 10.0 mi NNW 12.7 mph 17.3 mph N/A   Mostly Cloudy
10:15 PM 30.2 °F 20.8 °F 19.4 °F 64% 29.88 in 10.0 mi North 11.5 mph - N/A   Mostly Cloudy
10:35 PM 30.2 °F 19.3 °F 19.4 °F 64% 29.89 in 10.0 mi NNW 15.0 mph 21.9 mph N/A   Mostly Cloudy
10:55 PM 28.4 °F 17.0 °F 17.6 °F 64% 29.89 in 10.0 mi NNW 15.0 mph - N/A   Mostly Cloudy
11:15 PM 28.4 °F 17.5 °F 17.6 °F 64% 29.90 in 10.0 mi NNW 13.8 mph - N/A   Mostly Cloudy
11:55 PM 28.4 °F 16.6 °F 15.8 °F 59% 29.91 in 10.0 mi NNW 16.1 mph - N/A   Mostly Cloudy